FW0380 Weather Reports


time (UTC)temp
F
wind
direction
speed
knots
gust
knots
rain 1hr
in
rain 24hr
in
rain mn
in
humidity
%
barometer
mb
20260510192646 69 5 0.0 1.7 0.04 0.04 0.03 82 1014.5
20260510191909 69 5 0.0 1.7 0.03 0.03 0.03 80 1014.6
20260510191403 70 5 0.0 1.7 0.03 0.03 0.03 78 1014.6
20260510190903 70 5 0.9 3.5 0.03 0.03 0.03 76 1014.6
20260510190402 71 5 1.7 10.4 0.02 0.02 0.02 73 1014.6
20260510185903 71 355 2.6 10.4 0.02 0.02 0.01 70 1014.6
20260510185404 72 17 4.3 11.3 0.01 0.01 0.01 69 1014.7
20260510184903 72 355 6.1 12.2 0.00 0.00 0.00 65 1014.6
20260510184405 73 5 3.5 12.2 0.00 0.00 0.00 64 1014.7
20260510184140 73 336 0.9 4.3 0.00 0.00 0.00 64 1014.7
20260510183402 73 313 0.9 6.1 0.00 0.00 0.00 62 1014.7
20260510182903 73 0 0.9 6.1 0.00 0.00 0.00 61 1014.5
20260510182403 73 343 0.0 2.6 0.00 0.00 0.00 66 1014.4
20260510181903 73 343 0.0 4.3 0.00 0.00 0.00 63 1014.4
20260510181402 74 343 0.9 4.3 0.00 0.00 0.00 64 1014.6
20260510181138 74 321 1.7 4.3 0.00 0.00 0.00 60 1014.6
20260510180405 75 355 1.7 8.7 0.00 0.00 0.00 59 1014.7
20260510180135 76 340 1.7 8.7 0.00 0.00 0.00 57 1014.7
20260510175403 77 334 2.6 8.7 0.00 0.00 0.00 50 1014.6
20260510174901 77 340 2.6 8.7 0.00 0.00 0.00 46 1014.4
20260510174643 78 13 1.7 5.2 0.00 0.00 0.00 48 1014.4
20260510173903 79 26 2.6 6.1 0.00 0.00 0.00 48 1014.5
20260510173635 79 323 1.7 7.0 0.00 0.00 0.00 47 1014.6
20260510172900 79 311 1.7 7.0 0.00 0.00 0.00 50 1014.5
20260510172401 78 320 2.6 7.8 0.00 0.00 0.00 49 1014.4
20260510171901 78 257 2.6 7.8 0.00 0.00 0.00 46 1014.4
20260510171402 78 306 1.7 6.1 0.00 0.00 0.00 49 1014.6
20260510171133 78 277 1.7 6.1 0.00 0.00 0.00 52 1014.5
20260510170401 78 210 1.7 7.0 0.00 0.00 0.00 53 1014.5
20260510165903 77 355 1.7 7.8 0.00 0.00 0.00 55 1014.5
20260510165401 76 301 1.7 7.8 0.00 0.00 0.00 56 1014.6
20260510164901 76 355 1.7 7.0 0.00 0.00 0.00 54 1014.6
20260510164401 76 337 1.7 7.0 0.00 0.00 0.00 55 1014.5
20260510163902 75 344 0.9 3.5 0.00 0.00 0.00 52 1014.5
20260510163357 75 338 0.9 4.3 0.00 0.00 0.00 59 1014.5
20260510163129 74 283 0.9 5.2 0.00 0.00 0.00 58 1014.6
20260510162345 74 148 0.9 5.2 0.00 0.00 0.00 59 1014.5
20260510161842 73 148 1.7 5.2 0.00 0.00 0.00 60 1014.6
20260510161610 73 254 1.7 6.1 0.00 0.00 0.00 59 1014.6
20260510160829 72 11 1.7 6.1 0.00 0.00 0.00 60 1014.6
20260510160329 72 317 0.9 3.5 0.00 0.00 0.00 62 1014.7
20260510155829 71 198 0.9 3.5 0.00 0.00 0.00 63 1014.6
20260510155330 71 139 0.9 3.5 0.00 0.00 0.00 64 1014.6
20260510154829 71 311 0.9 3.5 0.00 0.00 0.00 71 1014.6
20260510154605 70 263 0.9 3.5 0.00 0.00 0.00 66 1014.6
20260510153829 70 267 0.9 3.5 0.00 0.00 0.00 67 1014.8
20260510153330 70 150 1.7 4.3 0.00 0.00 0.00 67 1014.8
20260510152830 69 260 1.7 8.7 0.00 0.00 0.00 69 1014.8
20260510152604 69 355 1.7 8.7 0.00 0.00 0.00 70 1014.7
20260510151830 68 229 2.6 8.7 0.00 0.00 0.00 71 1014.8
20260510151329 68 324 1.7 8.7 0.00 0.00 0.00 70 1014.7
20260510150830 67 238 1.7 4.3 0.00 0.00 0.00 75 1014.6
20260510150329 66 196 0.9 4.3 0.00 0.00 0.00 75 1014.6
20260510145329 65 292 0.9 3.5 0.00 0.00 0.00 77 1014.6
20260510144832 65 9 0.9 2.6 0.00 0.00 0.00 77 1014.5
20260510144605 64 274 0.9 2.6 0.00 0.00 0.00 79 1014.6
20260510143829 64 241 0.9 2.6 0.00 0.00 0.00 82 1014.7
20260510143331 63 252 1.7 3.5 0.00 0.00 0.00 84 1014.7
20260510142829 62 9 1.7 3.5 0.00 0.00 0.00 86 1014.7
20260510142329 62 168 0.9 3.5 0.00 0.00 0.00 87 1014.7
20260510141831 61 161 0.9 3.5 0.00 0.00 0.00 88 1014.7
20260510141328 60 217 0.9 2.6 0.00 0.00 0.00 90 1014.8
20260510140830 60 153 0.9 2.6 0.00 0.00 0.00 91 1014.8
20260510140328 59 298 0.0 2.6 0.00 0.00 0.00 92 1014.7
20260510135826 59 239 0.0 2.6 0.00 0.00 0.00 93 1014.8
20260510135345 57 203 0.0 0.0 0.00 0.00 0.00 94 1014.7
20260510135336 58 327 0.9 2.6 0.00 0.00 0.00 94 1014.7
20260510135102 58 333 0.9 2.6 0.00 0.00 0.00 94 1014.7
20260510133821 57 210 0.0 0.0 0.00 0.00 0.00 94 1014.8
20260510133320 56 199 0.0 0.0 0.00 0.00 0.00 95 1014.7
20260510132818 56 290 0.0 0.0 0.00 0.00 0.00 95 1014.8
20260510132316 56 36 0.0 0.0 0.00 0.00 0.00 95 1014.8
20260510131819 55 35 0.0 0.0 0.00 0.00 0.00 95 1014.7
20260510131313 55 35 0.0 0.0 0.00 0.00 0.00 95 1014.6
20260510130813 54 28 0.0 0.0 0.00 0.00 0.00 95 1014.8
20260510130608 54 27 0.0 0.0 0.00 0.00 0.00 95 1014.9
20260510130328 54 28 0.0 0.0 0.00 0.00 0.00 95 1014.9
20260510125310 53 27 0.0 0.0 0.00 0.00 0.00 95 1014.8
20260510124809 53 27 0.0 0.0 0.00 0.00 0.00 94 1014.8
20260510124306 53 26 0.0 0.0 0.00 0.00 0.00 94 1014.8
20260510123808 53 26 0.0 0.0 0.00 0.00 0.00 95 1014.8
20260510123310 53 26 0.0 0.0 0.00 0.00 0.00 95 1014.8
20260510122806 52 26 0.0 0.0 0.00 0.00 0.00 95 1014.8
20260510122306 52 26 0.0 0.0 0.00 0.00 0.00 94 1014.9
20260510121804 52 26 0.0 0.0 0.00 0.00 0.00 94 1014.8
20260510121543 52 26 0.0 0.0 0.00 0.00 0.00 95 1014.8
20260510120804 52 26 0.0 2.6 0.00 0.00 0.00 95 1014.7
20260510120304 52 20 0.0 2.6 0.00 0.00 0.00 94 1014.6
20260510115804 51 17 0.9 3.5 0.00 0.00 0.00 95 1014.5
20260510115305 51 355 0.9 3.5 0.00 0.00 0.00 95 1014.4
20260510114802 51 351 0.9 3.5 0.00 0.00 0.00 94 1014.2
20260510114301 51 117 0.0 1.7 0.00 0.00 0.00 94 1014.0
20260510113802 51 117 0.0 1.7 0.00 0.00 0.00 95 1014.0
20260510113301 51 117 0.9 3.5 0.00 0.00 0.00 95 1014.0
20260510113034 50 117 1.7 5.2 0.00 0.00 0.00 94 1014.1
20260510112305 50 0 2.6 5.2 0.00 0.00 0.00 94 1014.0
20260510111802 50 343 1.7 5.2 0.00 0.00 0.00 94 1014.3
20260510111301 49 16 1.7 5.2 0.00 0.00 0.00 94 1014.2
20260510111038 49 355 0.9 2.6 0.00 0.00 0.00 94 1014.1
20260510110539 49 0 0.0 2.6 0.00 0.00 0.00 94 1013.7
20260510105801 49 0 0.0 2.6 0.00 0.00 0.00 94 1013.7
20260510105312 49 0 0.9 3.5 0.00 0.00 0.00 94 1013.6
20260510105306 49 0 0.0 2.6 0.00 0.00 0.00 94 1013.7
20260510104301 49 0 0.9 3.5 0.00 0.00 0.00 94 1013.5
20260510103802 49 9 0.9 4.3 0.00 0.00 0.00 94 1013.4
20260510103301 49 0 0.9 4.3 0.00 0.00 0.00 94 1013.4
20260510102815 49 355 0.0 0.0 0.00 0.00 0.00 94 1013.1
20260510102806 49 355 0.0 0.0 0.00 0.00 0.00 94 1013.4
20260510101802 49 355 0.0 0.0 0.00 0.00 0.00 94 1013.0
20260510101300 49 355 0.0 0.0 0.00 0.00 0.00 94 1013.1
20260510100801 49 355 0.0 0.0 0.00 0.00 0.00 94 1013.2
20260510100301 49 355 0.0 0.0 0.00 0.00 0.00 94 1013.2
20260510095802 49 355 0.0 0.0 0.00 0.00 0.00 94 1013.1
20260510095305 49 355 0.0 4.3 0.00 0.00 0.00 94 1012.9
20260510095036 49 355 0.0 4.3 0.00 0.00 0.00 94 1013.0
20260510094302 49 355 0.9 4.3 0.00 0.00 0.00 94 1012.9
20260510093801 49 355 1.7 4.3 0.00 0.00 0.00 94 1012.9
20260510093303 49 355 0.9 4.3 0.00 0.00 0.00 94 1012.8
20260510092802 49 0 0.9 4.3 0.00 0.00 0.00 94 1012.9
20260510092306 49 355 0.9 4.3 0.00 0.00 0.00 94 1012.8
20260510091802 49 22 1.7 5.2 0.00 0.00 0.00 94 1012.8
20260510091301 49 347 1.7 5.2 0.00 0.00 0.00 94 1012.9
20260510090803 49 344 1.7 5.2 0.00 0.00 0.00 94 1012.8
20260510090301 49 321 0.9 7.0 0.00 0.00 0.00 94 1013.0
20260510085802 49 84 1.7 7.0 0.00 0.00 0.00 94 1012.6
20260510085300 49 321 1.7 7.0 0.00 0.00 0.00 94 1013.3
20260510084755 49 15 2.6 7.0 0.00 0.00 0.00 94 1012.9
20260510084244 49 348 2.6 8.7 0.00 0.00 0.00 94 1012.7
20260510083741 48 315 2.6 8.7 0.00 0.00 0.00 93 1013.3
20260510083243 48 355 0.9 7.8 0.00 0.00 0.00 93 1013.1
20260510082740 48 355 0.0 0.0 0.00 0.00 0.00 93 1012.5
20260510082237 48 355 0.0 0.0 0.00 0.00 0.00 93 1012.5
20260510081737 48 355 0.0 0.0 0.00 0.00 0.00 93 1012.5
20260510081235 48 355 0.0 0.0 0.00 0.00 0.00 93 1012.3
20260510080736 49 355 0.0 0.0 0.00 0.00 0.00 93 1012.3
20260510080508 49 355 0.0 0.0 0.00 0.00 0.00 93 1012.3
20260510075731 49 187 0.0 0.0 0.00 0.00 0.00 93 1012.3
20260510075233 49 187 0.0 0.0 0.00 0.00 0.00 93 1012.3
20260510074730 49 187 0.0 0.0 0.00 0.00 0.00 93 1012.3
20260510074231 49 187 0.0 0.0 0.00 0.00 0.00 93 1012.3
20260510073732 49 187 0.0 0.0 0.00 0.00 0.00 93 1012.3
20260510073229 49 187 0.0 0.0 0.00 0.00 0.00 93 1012.2
20260510073006 49 187 0.0 0.0 0.00 0.00 0.00 93 1012.2
20260510072231 49 187 0.0 0.0 0.00 0.00 0.00 93 1012.2
20260510071731 49 187 0.0 0.0 0.00 0.00 0.00 93 1012.1
20260510071229 49 187 0.0 0.0 0.00 0.00 0.00 93 1012.0
20260510070732 49 187 0.0 0.0 0.00 0.00 0.00 93 1011.9
20260510070230 49 187 0.0 0.0 0.00 0.00 0.00 93 1011.7
20260510065730 49 187 0.0 0.0 0.00 0.00 0.00 93 1011.7
20260510065229 49 187 0.0 0.0 0.00 0.00 0.00 93 1011.8
20260510064730 49 187 0.0 0.0 0.00 0.00 0.00 93 1011.7
20260510064229 49 187 0.0 0.0 0.00 0.00 0.00 93 1011.8
20260510063729 49 187 0.0 0.0 0.00 0.00 0.00 93 1011.8
20260510063230 49 187 0.0 0.0 0.00 0.00 0.00 93 1011.9
20260510062730 49 187 0.0 0.0 0.00 0.00 0.00 93 1012.0
20260510062228 49 187 0.0 0.0 0.00 0.00 0.00 93 1012.0
20260510061726 49 187 0.0 0.0 0.00 0.00 0.00 93 1012.0
20260510061224 49 187 0.0 0.0 0.00 0.00 0.00 92 1012.0
20260510060726 49 187 0.0 0.0 0.00 0.00 0.00 92 1012.0
20260510060225 49 187 0.0 0.0 0.00 0.00 0.00 92 1012.0
20260510055723 49 187 0.0 0.0 0.00 0.00 0.00 92 1012.0
20260510055224 49 187 0.0 0.0 0.00 0.00 0.00 92 1012.1
20260510054721 49 187 0.0 0.0 0.00 0.00 0.00 92 1012.1
20260510054224 49 187 0.0 0.0 0.00 0.00 0.00 92 1012.2
20260510053719 49 187 0.0 0.0 0.00 0.00 0.00 92 1012.2
20260510053449 49 187 0.0 0.0 0.00 0.00 0.00 92 1012.2
20260510052717 49 187 0.0 0.0 0.00 0.00 0.00 92 1012.2
20260510052452 49 187 0.0 0.0 0.00 0.00 0.00 92 1012.3
20260510051718 49 187 0.0 0.0 0.00 0.00 0.00 92 1012.4
20260510051222 50 187 0.0 0.0 0.00 0.00 0.00 91 1012.4
20260510050717 50 187 0.0 0.0 0.00 0.00 0.00 91 1012.4
20260510050216 50 187 0.0 0.0 0.00 0.00 0.00 91 1012.5
20260510050008 50 187 0.0 0.0 0.00 0.00 0.00 91 1012.5
20260510050004 50 187 0.0 0.0 0.00 0.00 0.00 91 1012.4
20260510044717 50 187 0.0 0.0 0.00 0.00 0.00 91 1012.5
20260510044218 50 187 0.0 0.0 0.00 0.00 0.00 91 1012.6
20260510043749 50 187 0.0 0.0 0.00 0.00 0.00 91 1012.6
20260510043740 50 187 0.0 0.0 0.00 0.00 0.00 91 1012.6
20260510043223 50 187 0.0 0.0 0.00 0.00 0.00 91 1012.6
20260510042217 50 187 0.0 0.0 0.00 0.00 0.00 91 1012.6
20260510041716 50 187 0.0 0.0 0.00 0.00 0.00 91 1012.6
20260510041216 50 187 0.0 0.0 0.00 0.00 0.00 91 1012.7
20260510040737 50 187 0.0 0.0 0.00 0.00 0.00 91 1012.7
20260510040728 50 187 0.0 0.0 0.00 0.00 0.00 91 1012.7
20260510040451 50 187 0.0 0.0 0.00 0.00 0.00 91 1012.7
20260510035222 51 187 0.0 0.0 0.00 0.00 0.00 91 1012.6
20260510035216 50 187 0.0 0.0 0.00 0.00 0.00 91 1012.8
20260510034210 51 187 0.0 0.0 0.00 0.00 0.00 91 1012.5
20260510033708 51 187 0.0 0.0 0.00 0.00 0.00 91 1012.6
20260510033209 51 187 0.0 0.0 0.00 0.00 0.00 90 1012.3
20260510032708 51 187 0.0 0.0 0.00 0.00 0.00 90 1012.6
20260510032205 51 187 0.0 0.0 0.00 0.00 0.00 90 1012.4
20260510031938 51 187 0.0 0.0 0.00 0.00 0.00 89 1012.3
20260510031206 51 187 0.0 0.0 0.00 0.00 0.00 89 1012.3
20260510030704 51 187 0.0 0.0 0.00 0.00 0.00 89 1012.3
20260510030201 51 187 0.0 0.0 0.00 0.00 0.00 89 1012.2
20260510025702 51 187 0.0 0.0 0.00 0.00 0.00 89 1012.1
20260510025202 51 187 0.0 0.0 0.00 0.00 0.00 89 1012.1
20260510024701 51 187 0.0 0.0 0.00 0.00 0.00 89 1012.1
20260510024201 51 187 0.0 0.0 0.00 0.00 0.00 89 1012.0
20260510023701 52 187 0.0 0.0 0.00 0.00 0.00 89 1012.1
20260510023204 52 187 0.0 0.0 0.00 0.00 0.00 89 1012.1
20260510022701 52 187 0.0 0.0 0.00 0.00 0.00 89 1012.1
20260510022202 52 187 0.0 0.0 0.00 0.00 0.00 88 1012.2
20260510021926 52 187 0.0 0.0 0.00 0.00 0.00 88 1012.2
20260510021706 52 187 0.0 0.0 0.00 0.00 0.00 88 1012.2
20260510021202 52 187 0.0 0.0 0.00 0.00 0.00 88 1012.2
20260510020702 52 187 0.0 0.0 0.00 0.00 0.00 88 1012.1
20260510020203 52 187 0.0 0.0 0.00 0.00 0.00 88 1012.1
20260510015701 53 187 0.0 0.0 0.00 0.00 0.00 87 1012.1
20260510015204 53 187 0.0 0.0 0.00 0.00 0.00 87 1012.0
20260510014701 53 187 0.0 0.0 0.00 0.00 0.00 87 1012.0
20260510014202 53 187 0.0 0.0 0.00 0.00 0.00 87 1011.9
20260510013702 53 187 0.0 0.0 0.00 0.00 0.00 87 1011.9
20260510013201 53 187 0.0 0.0 0.00 0.00 0.00 86 1011.8
20260510012702 54 187 0.0 0.0 0.00 0.00 0.00 86 1011.9
20260510012206 54 187 0.0 0.0 0.00 0.00 0.00 86 1011.8
20260510011702 54 187 0.0 0.0 0.00 0.00 0.00 85 1011.8
20260510011431 54 187 0.0 0.0 0.00 0.00 0.00 85 1011.9
20260510010659 55 187 0.0 0.0 0.00 0.00 0.00 85 1011.8
20260510010157 55 187 0.0 0.0 0.00 0.00 0.00 84 1011.6
20260510005653 55 187 0.0 0.0 0.00 0.00 0.00 84 1011.6
20260510005151 55 187 0.0 0.0 0.00 0.00 0.00 84 1011.6
20260510004651 56 187 0.0 0.0 0.00 0.00 0.00 83 1011.6
20260510004153 56 187 0.0 0.0 0.00 0.00 0.00 83 1011.6
20260510003650 56 186 0.0 0.0 0.00 0.00 0.00 82 1011.6
20260510003147 56 186 0.0 0.0 0.00 0.00 0.00 82 1011.5
20260510002647 57 186 0.0 0.0 0.00 0.00 0.00 82 1011.5
20260510002149 57 186 0.0 0.0 0.00 0.00 0.00 82 1011.5
20260510001647 57 186 0.0 0.0 0.00 0.00 0.00 81 1011.6
20260510001143 58 186 0.0 0.0 0.00 0.00 0.00 81 1011.6
20260510000641 58 186 0.0 0.0 0.00 0.00 0.00 81 1011.5
20260510000140 58 349 0.0 0.0 0.00 0.00 0.00 81 1011.5
20260509235638 58 349 0.0 0.0 0.00 0.00 0.00 80 1011.5
20260509235136 58 349 0.0 0.0 0.00 0.00 0.00 80 1011.6
20260509234635 59 348 0.0 0.0 0.00 0.00 0.00 80 1011.6
20260509234411 59 348 0.0 0.9 0.00 0.00 0.00 80 1011.6
20260509233633 59 348 0.0 0.9 0.00 0.00 0.00 80 1011.5
20260509233131 59 349 0.0 1.7 0.00 0.00 0.00 80 1011.5
20260509232904 59 349 0.0 1.7 0.00 0.00 0.00 80 1011.5
20260509232123 59 347 0.0 0.9 0.00 0.00 0.00 80 1011.5
20260509231617 59 355 0.0 0.0 0.00 0.00 0.00 80 1011.5
20260509231112 59 355 0.0 0.0 0.00 0.00 0.00 80 1011.4
20260509230605 59 355 0.0 0.0 0.00 0.00 0.00 80 1011.4
20260509230353 59 331 0.0 0.0 0.00 0.00 0.00 80 1011.4
20260509230114 59 332 0.0 0.0 0.00 0.00 0.00 80 1011.3
20260509225101 59 333 0.0 0.0 0.00 0.00 0.00 80 1011.3
20260509224603 59 331 0.0 2.6 0.00 0.00 0.00 79 1011.3
20260509224102 59 321 0.0 2.6 0.00 0.00 0.00 79 1011.4
20260509223603 59 334 0.9 4.3 0.00 0.00 0.00 80 1011.4
20260509223101 59 333 0.9 4.3 0.00 0.00 0.00 80 1011.4
20260509222604 59 350 0.0 2.6 0.00 0.00 0.00 81 1011.5
20260509222102 59 355 0.0 2.6 0.00 0.00 0.00 81 1011.5
20260509221602 59 355 0.0 2.6 0.00 0.00 0.00 82 1011.5
20260509221101 59 355 0.0 2.6 0.00 0.00 0.00 82 1011.4
20260509220837 59 349 0.0 2.6 0.00 0.00 0.00 83 1011.4
20260509215603 59 355 0.9 2.6 0.00 0.00 0.00 82 1011.4
20260509215102 58 49 0.0 4.3 0.00 0.00 0.00 82 1011.6
20260509214601 58 341 0.9 4.3 0.00 0.00 0.00 81 1011.6
20260509214102 58 342 1.7 5.2 0.00 0.00 0.00 81 1011.5
20260509213601 58 5 1.7 5.2 0.00 0.00 0.00 81 1011.6
20260509213105 59 347 0.9 5.2 0.00 0.00 0.00 80 1011.6
20260509212601 59 5 0.9 5.2 0.00 0.00 0.00 81 1011.4
20260509212102 59 345 1.7 7.0 0.00 0.00 0.00 81 1011.5
20260509211602 59 355 2.6 7.0 0.00 0.00 0.00 80 1011.4
20260509211339 59 5 1.7 7.0 0.00 0.00 0.00 80 1011.4
20260509210602 59 343 1.7 4.3 0.00 0.00 0.00 80 1011.4
20260509205602 59 355 0.9 5.2 0.00 0.00 0.00 80 1011.3
20260509205101 59 355 0.9 7.8 0.00 0.00 0.00 80 1011.3
20260509204601 59 355 1.7 7.8 0.00 0.00 0.00 80 1011.3
20260509204101 59 349 2.6 7.8 0.00 0.00 0.00 79 1011.3
20260509203605 59 351 3.5 7.8 0.00 0.00 0.00 78 1011.5
20260509203103 59 53 2.6 7.8 0.00 0.00 0.00 79 1011.5
20260509202601 59 334 1.7 7.8 0.00 0.00 0.00 79 1011.5
20260509202350 59 350 3.5 7.8 0.00 0.00 0.00 77 1011.4
20260509202110 59 0 2.6 7.8 0.00 0.00 0.00 78 1011.4
20260509201100 59 336 2.6 8.7 0.00 0.00 0.00 78 1011.4
20260509200602 59 0 3.5 8.7 0.00 0.00 0.00 79 1011.5
20260509200341 59 9 4.3 8.7 0.00 0.00 0.00 78 1011.6
20260509195601 59 5 4.3 9.6 0.00 0.00 0.00 77 1011.6
20260509195101 59 346 3.5 9.6 0.00 0.00 0.00 78 1011.6
20260509194603 59 5 4.3 9.6 0.00 0.00 0.00 77 1011.4
20260509194103 59 334 3.5 9.6 0.00 0.00 0.00 78 1011.3
20260509193603 59 355 2.6 9.6 0.00 0.00 0.00 78 1011.5
20260509193101 59 355 4.3 9.6 0.00 0.00 0.00 78 1011.7